Date,TemperatureHighF,TemperatureAvgF,TemperatureLowF,DewpointHighF,DewpointAvgF,DewpointLowF,HumidityHigh,HumidityAvg,HumidityLow,PressureMaxIn,PressureMinIn,WindSpeedMaxMPH,WindSpeedAvgMPH,GustSpeedMaxMPH,PrecipitationSumIn
2013-1-1,42,38,33,-100,-100,-100,0,0,100,0.00,40.00,9,4,0,0.00
2013-1-2,47,37,32,-100,-100,-100,0,0,100,0.00,40.00,22,5,0,0.00
2013-1-3,45,38,31,-100,-100,-100,0,0,100,0.00,40.00,22,6,0,0.00
2013-1-4,50,46,43,-100,-100,-100,0,0,100,0.00,40.00,24,6,0,0.00
2013-1-5,47,44,42,-100,-100,-100,0,0,100,0.00,40.00,23,6,0,0.00
2013-1-6,46,44,43,-100,-100,-100,0,0,100,0.00,40.00,25,14,0,0.00
2013-1-7,53,48,44,-100,-100,-100,0,0,100,0.00,40.00,35,16,0,0.00
2013-1-8,53,48,44,-100,-100,-100,0,0,100,0.00,40.00,28,15,0,0.00
2013-1-9,52,44,39,-100,-100,-100,0,0,100,0.00,40.00,23,14,0,0.00
2013-1-10,39,37,34,-100,-100,-100,0,0,100,0.00,40.00,12,5,0,0.00
2013-1-11,41,35,30,-100,-100,-100,0,0,100,0.00,40.00,10,5,0,0.00
2013-1-12,39,33,28,-100,-100,-100,0,0,100,0.00,40.00,10,4,0,0.00
2013-1-13,38,32,29,-100,-100,-100,0,0,100,0.00,40.00,8,3,0,0.00
2013-1-14,40,35,32,-100,-100,-100,0,0,100,0.00,40.00,13,6,0,0.00
2013-1-15,43,38,32,-100,-100,-100,0,0,100,0.00,40.00,7,3,0,0.00
2013-1-16,44,36,31,-100,-100,-100,0,0,100,0.00,40.00,7,4,0,0.00
2013-1-17,39,36,32,-100,-100,-100,0,0,100,0.00,40.00,8,4,0,0.00
2013-1-18,40,37,36,-100,-100,-100,0,0,100,0.00,40.00,10,5,0,0.00
2013-1-19,39,38,36,-100,-100,-100,0,0,100,0.00,40.00,8,5,0,0.00
2013-1-20,42,39,37,-100,-100,-100,0,0,100,0.00,40.00,9,5,0,0.00
2013-1-21,40,38,37,-100,-100,-100,0,0,100,0.00,40.00,9,4,0,0.00
2013-1-22,41,37,34,-100,-100,-100,0,0,100,0.00,40.00,10,4,0,0.00
2013-1-23,46,43,39,-100,-100,-100,0,0,100,0.00,40.00,15,6,0,0.00
2013-1-24,45,43,40,-100,-100,-100,0,0,100,0.00,40.00,10,7,0,0.00
2013-1-25,53,47,43,-100,-100,-100,0,0,100,0.00,40.00,22,11,0,0.00
2013-1-26,46,44,42,-100,-100,-100,0,0,100,0.00,40.00,24,10,0,0.00
2013-1-27,44,42,39,-100,-100,-100,0,0,100,0.00,40.00,20,10,0,0.00
2013-1-28,44,42,41,-100,-100,-100,0,0,100,0.00,40.00,13,5,0,0.00
2013-1-29,47,45,43,-100,-100,-100,0,0,100,0.00,40.00,5,2,0,0.00
2013-1-31,50,49,48,-100,-100,-100,0,0,100,0.00,40.00,25,11,0,0.00
2013-2-1,52,47,42,-100,-100,-100,0,0,100,0.00,40.00,7,4,0,0.00
2013-2-2,45,44,42,-100,-100,-100,0,0,100,0.00,40.00,12,6,0,0.00
2013-2-3,48,45,42,-100,-100,-100,0,0,100,0.00,40.00,14,8,0,0.00
2013-2-4,49,47,46,-100,-100,-100,0,0,100,0.00,40.00,15,9,0,0.00
2013-2-6,50,48,47,-100,-100,-100,0,0,100,0.00,40.00,20,12,0,0.00
2013-2-7,49,45,37,-100,-100,-100,0,0,100,0.00,40.00,27,11,0,0.00
2013-2-8,46,41,35,-100,-100,-100,0,0,100,0.00,40.00,8,4,0,0.00
2013-2-9,46,43,41,-100,-100,-100,0,0,100,0.00,40.00,7,2,0,0.00
2013-2-10,44,43,39,-100,-100,-100,0,0,100,0.00,40.00,5,2,0,0.00
2013-2-11,47,45,42,-100,-100,-100,0,0,100,0.00,40.00,13,5,0,0.00
2013-2-12,52,48,45,-100,-100,-100,0,0,100,0.00,40.00,31,9,0,0.00
2013-2-13,50,47,45,-100,-100,-100,0,0,100,0.00,40.00,23,5,0,0.00
2013-2-14,49,46,45,-100,-100,-100,0,0,100,0.00,40.00,12,6,0,0.00
2013-2-15,52,48,41,-100,-100,-100,0,0,100,0.00,40.00,17,5,0,0.00
2013-2-16,54,47,40,-100,-100,-100,0,0,100,0.00,40.00,21,9,0,0.00
2013-2-17,46,42,38,-100,-100,-100,0,0,100,0.00,40.00,13,5,0,0.00
2013-2-18,47,43,38,-100,-100,-100,0,0,100,0.00,40.00,18,7,0,0.00
2013-2-19,50,43,36,-100,-100,-100,0,0,100,0.00,40.00,16,5,0,0.00
2013-2-20,45,41,36,-100,-100,-100,0,0,100,0.00,40.00,22,6,0,0.00
2013-2-21,45,43,42,-100,-100,-100,0,0,100,0.00,40.00,24,14,0,0.00
2013-2-22,48,44,40,-100,-100,-100,0,0,100,0.00,40.00,35,24,0,0.00
2013-2-23,49,44,39,-100,-100,-100,0,0,100,0.00,40.00,22,9,0,0.00
2013-2-24,48,46,42,-100,-100,-100,0,0,100,0.00,40.00,25,16,0,0.00
2013-2-25,53,46,39,-100,-100,-100,0,0,100,0.00,40.00,39,20,0,0.00
2013-2-26,48,43,37,-100,-100,-100,0,0,100,0.00,40.00,20,11,0,0.00
2013-2-27,48,45,42,-100,-100,-100,0,0,100,0.00,40.00,18,6,0,0.00
2013-2-28,53,48,44,-100,-100,-100,0,0,100,0.00,40.00,22,8,0,0.00
2013-3-1,57,54,52,-100,-100,-100,0,0,100,0.00,40.00,25,16,0,0.00
2013-3-2,56,51,43,-100,-100,-100,0,0,100,0.00,40.00,24,14,0,0.00
2013-3-3,48,42,36,-100,-100,-100,0,0,100,0.00,40.00,24,7,0,0.00
2013-3-4,53,42,34,-100,-100,-100,0,0,100,0.00,40.00,14,7,0,0.00
2013-3-5,50,44,38,-100,-100,-100,0,0,100,0.00,40.00,12,6,0,0.00
2013-3-6,45,44,42,-100,-100,-100,0,0,100,0.00,40.00,13,6,0,0.00
2013-3-7,52,46,41,-100,-100,-100,0,0,100,0.00,40.00,15,6,0,0.00
2013-3-8,51,45,38,-100,-100,-100,0,0,100,0.00,40.00,12,5,0,0.00
2013-3-9,52,42,35,-100,-100,-100,0,0,100,0.00,40.00,9,4,0,0.00
2013-3-10,47,44,38,-100,-100,-100,0,0,100,0.00,40.00,13,4,0,0.00
2013-3-11,51,47,44,-100,-100,-100,0,0,100,0.00,40.00,13,4,0,0.00
2013-3-12,54,52,48,-100,-100,-100,0,0,100,0.00,40.00,27,17,0,0.00
2013-3-13,54,52,51,-100,-100,-100,0,0,100,0.00,40.00,30,19,0,0.00
2013-3-14,55,52,49,-100,-100,-100,0,0,100,0.00,40.00,31,13,0,0.00
2013-3-15,58,53,50,-100,-100,-100,0,0,100,0.00,40.00,32,15,0,0.00
2013-3-16,51,48,41,-100,-100,-100,0,0,100,0.00,40.00,35,15,0,0.00
2013-3-17,49,42,35,-100,-100,-100,0,0,100,0.00,40.00,25,8,0,0.00
2013-3-18,50,45,40,-100,-100,-100,0,0,100,0.00,40.00,27,14,0,0.00
2013-3-19,51,44,38,-100,-100,-100,0,0,100,0.00,40.00,15,6,0,0.00
2013-3-20,52,48,42,-100,-100,-100,0,0,100,0.00,40.00,41,21,0,0.00
2013-3-21,48,41,38,-100,-100,-100,0,0,100,0.00,40.00,21,11,0,0.00
2013-3-22,46,40,36,-100,-100,-100,0,0,100,0.00,40.00,12,5,0,0.00
2013-3-23,49,40,35,-100,-100,-100,0,0,100,0.00,40.00,20,6,0,0.00
2013-3-24,54,42,33,-100,-100,-100,0,0,100,0.00,40.00,7,4,0,0.00
2013-3-25,60,48,37,-100,-100,-100,0,0,100,0.00,40.00,16,5,0,0.00
2013-3-26,58,50,47,-100,-100,-100,0,0,100,0.00,40.00,9,4,0,0.00
2013-3-27,54,50,45,-100,-100,-100,0,0,100,0.00,40.00,7,2,0,0.00
2013-3-28,58,51,45,-100,-100,-100,0,0,100,0.00,40.00,12,4,0,0.00
2013-3-29,61,52,45,-100,-100,-100,0,0,100,0.00,40.00,16,5,0,0.00
2013-3-30,64,52,42,-100,-100,-100,0,0,100,0.00,40.00,14,7,0,0.00
2013-3-31,64,55,47,-100,-100,-100,0,0,100,0.00,40.00,16,5,0,0.00
2013-4-1,63,54,49,-100,-100,-100,0,0,100,0.00,40.00,21,9,0,0.00
2013-4-2,55,52,48,-100,-100,-100,0,0,100,0.00,40.00,21,10,0,0.00
2013-4-3,61,52,46,-100,-100,-100,0,0,100,0.00,40.00,10,5,0,0.00
2013-4-4,56,52,50,-100,-100,-100,0,0,100,0.00,40.00,16,6,0,0.00
2013-4-5,57,54,50,-100,-100,-100,0,0,100,0.00,40.00,30,18,0,0.00
2013-4-6,53,49,47,-100,-100,-100,0,0,100,0.00,40.00,25,18,0,0.00
2013-4-7,48,45,41,-100,-100,-100,0,0,100,0.00,40.00,14,8,0,0.00
2013-4-8,56,48,43,-100,-100,-100,0,0,100,0.00,40.00,10,5,0,0.00
2013-4-9,54,50,45,-100,-100,-100,0,0,100,0.00,40.00,14,9,0,0.00
2013-4-10,61,54,49,-100,-100,-100,0,0,100,0.00,40.00,21,12,0,0.00
2013-4-11,53,49,46,-100,-100,-100,0,0,100,0.00,40.00,15,7,0,0.00
2013-4-12,47,45,42,-100,-100,-100,0,0,100,0.00,40.00,21,10,0,0.00
2013-4-13,52,44,39,-100,-100,-100,0,0,100,0.00,40.00,33,13,0,0.00
2013-4-15,55,52,44,-100,-100,-100,0,0,100,0.00,40.00,17,8,0,0.00
2013-4-16,56,47,38,-100,-100,-100,0,0,100,0.00,40.00,22,4,0,0.00
2013-4-17,59,48,40,-100,-100,-100,0,0,100,0.00,40.00,21,8,0,0.00
2013-4-18,48,46,45,-100,-100,-100,0,0,100,0.00,40.00,16,9,0,0.00
2013-4-21,55,48,44,-100,-100,-100,0,0,100,0.00,40.00,12,6,0,0.00
2013-4-22,60,50,40,-100,-100,-100,0,0,100,0.00,40.00,12,6,0,0.00
2013-4-23,60,50,37,-100,-100,-100,0,0,100,0.00,40.00,12,5,0,0.00
2013-4-24,68,55,43,-100,-100,-100,0,0,100,0.00,40.00,9,5,0,0.00
2013-4-25,68,56,44,-100,-100,-100,0,0,100,0.00,40.00,9,4,0,0.00
2013-4-26,64,54,47,-100,-100,-100,0,0,100,0.00,40.00,12,6,0,0.00
2013-4-27,57,55,53,-100,-100,-100,0,0,100,0.00,40.00,30,13,0,0.00
2013-4-28,59,53,50,-100,-100,-100,0,0,100,0.00,40.00,30,10,0,0.00
2013-4-29,55,50,46,-100,-100,-100,0,0,100,0.00,40.00,24,12,0,0.00
2013-4-30,53,48,43,-100,-100,-100,0,0,100,0.00,40.00,31,10,0,0.00
2013-5-1,62,50,37,-100,-100,-100,0,0,100,0.00,40.00,13,6,0,0.00
2013-5-2,66,54,44,-100,-100,-100,0,0,100,0.00,40.00,13,6,0,0.00
2013-5-3,66,58,51,-100,-100,-100,0,0,100,0.00,40.00,23,7,0,0.00
2013-5-4,76,63,55,-100,-100,-100,0,0,100,0.00,40.00,18,9,0,0.00
2013-5-5,76,65,55,-100,-100,-100,0,0,100,0.00,40.00,15,6,0,0.00
2013-5-6,82,66,54,-100,-100,-100,0,0,100,0.00,40.00,17,4,0,0.00
2013-5-7,67,59,53,-100,-100,-100,0,0,100,0.00,40.00,18,9,0,0.00
2013-5-8,62,56,53,-100,-100,-100,0,0,100,0.00,40.00,14,7,0,0.00
2013-5-9,66,55,50,-100,-100,-100,0,0,100,0.00,40.00,15,5,0,0.00
2013-5-10,72,58,49,-100,-100,-100,0,0,100,0.00,40.00,10,4,0,0.00
2013-5-11,76,60,54,-100,-100,-100,0,0,100,0.00,40.00,16,4,0,0.00
2013-5-12,69,62,58,-100,-100,-100,0,0,100,0.00,40.00,23,14,0,0.00
2013-5-13,62,58,51,-100,-100,-100,0,0,100,0.00,40.00,32,17,0,0.00
2013-5-14,65,55,49,-100,-100,-100,0,0,100,0.00,40.00,17,9,0,0.00
2013-5-15,62,54,47,-100,-100,-100,0,0,100,0.00,40.00,21,6,0,0.00
2013-5-16,66,58,54,-100,-100,-100,0,0,100,0.00,40.00,16,7,0,0.00
2013-5-17,62,58,54,-100,-100,-100,0,0,100,0.00,40.00,20,12,0,0.00
2013-5-18,61,56,52,-100,-100,-100,0,0,100,0.00,40.00,16,8,0,0.00
2013-5-19,62,56,53,-100,-100,-100,0,0,100,0.00,40.00,12,4,0,0.00
2013-5-20,65,55,47,-100,-100,-100,0,0,100,0.00,40.00,17,7,0,0.00
2013-5-21,55,51,48,-100,-100,-100,0,0,100,0.00,40.00,20,9,0,0.00
2013-5-22,53,50,48,-100,-100,-100,0,0,100,0.00,40.00,17,9,0,0.00
2013-5-23,55,50,46,-100,-100,-100,0,0,100,0.00,40.00,21,7,0,0.00
2013-5-24,61,54,47,-100,-100,-100,0,0,100,0.00,40.00,21,8,0,0.00
2013-5-25,60,55,51,-100,-100,-100,0,0,100,0.00,40.00,20,9,0,0.00
2013-5-26,62,55,51,-100,-100,-100,0,0,100,0.00,40.00,20,6,0,0.00
2013-5-27,58,56,52,-100,-100,-100,0,0,100,0.00,40.00,16,7,0,0.00
2013-5-28,61,56,53,-100,-100,-100,0,0,100,0.00,40.00,23,14,0,0.00
2013-5-29,58,53,51,-100,-100,-100,0,0,100,0.00,40.00,13,6,0,0.00
2013-6-5,71,67,60,-100,-100,-100,0,0,100,0.00,40.00,23,12,0,0.00
2013-6-6,74,64,54,-100,-100,-100,0,0,100,0.00,40.00,14,6,0,0.00
2013-6-7,65,60,56,-100,-100,-100,0,0,100,0.00,40.00,20,10,0,0.00
2013-6-8,64,59,56,-100,-100,-100,0,0,100,0.00,40.00,17,7,0,0.00
2013-6-9,63,58,55,-100,-100,-100,0,0,100,0.00,40.00,17,6,0,0.00
2013-6-10,68,59,51,-100,-100,-100,0,0,100,0.00,40.00,12,5,0,0.00
2013-6-11,67,58,53,-100,-100,-100,0,0,100,0.00,40.00,24,12,0,0.00
2013-6-12,64,58,52,-100,-100,-100,0,0,100,0.00,40.00,23,13,0,0.00
2013-6-13,65,59,54,-100,-100,-100,0,0,100,0.00,40.00,13,6,0,0.00
2013-6-14,64,58,54,-100,-100,-100,0,0,100,0.00,40.00,15,8,0,0.00
2013-6-15,70,62,51,-100,-100,-100,0,0,100,0.00,40.00,13,4,0,0.00
2013-6-16,69,61,54,-100,-100,-100,0,0,100,0.00,40.00,14,5,0,0.00
2013-6-17,74,62,56,-100,-100,-100,0,0,100,0.00,40.00,28,8,0,0.00
2013-6-18,62,58,57,-100,-100,-100,0,0,100,0.00,40.00,17,10,0,0.00
2013-6-19,65,62,59,-100,-100,-100,0,0,100,0.00,40.00,12,5,0,0.00
2013-6-20,62,58,55,-100,-100,-100,0,0,100,0.00,40.00,14,9,0,0.00
2013-6-22,74,67,57,-100,-100,-100,0,0,100,0.00,40.00,9,6,0,0.00
2013-6-23,67,63,59,-100,-100,-100,0,0,100,0.00,40.00,6,2,0,0.00
2013-6-24,66,62,59,-100,-100,-100,0,0,100,0.00,40.00,22,12,0,0.00
2013-6-25,69,61,57,-100,-100,-100,0,0,100,0.00,40.00,17,7,0,0.00
2013-6-26,69,62,57,-100,-100,-100,0,0,100,0.00,40.00,17,6,0,0.00
2013-6-27,68,62,58,-100,-100,-100,0,0,100,0.00,40.00,7,1,0,0.00
2013-6-28,77,68,60,-100,-100,-100,0,0,100,0.00,40.00,13,4,0,0.00
2013-6-29,79,69,61,-100,-100,-100,0,0,100,0.00,40.00,15,5,0,0.00
2013-6-30,85,73,60,-100,-100,-100,0,0,100,0.00,40.00,13,4,0,0.00
2013-7-1,81,72,65,-100,-100,-100,0,0,100,0.00,40.00,18,7,0,0.00
2013-7-2,77,67,61,-100,-100,-100,0,0,100,0.00,40.00,16,6,0,0.00
2013-7-3,72,66,61,-100,-100,-100,0,0,100,0.00,40.00,21,9,0,0.00
2013-7-4,68,63,58,-100,-100,-100,0,0,100,0.00,40.00,15,6,0,0.00
2013-7-5,72,64,55,-100,-100,-100,0,0,100,0.00,40.00,21,9,0,0.00
2013-7-6,75,64,56,-100,-100,-100,0,0,100,0.00,40.00,12,4,0,0.00
2013-7-7,71,64,57,-100,-100,-100,0,0,100,0.00,40.00,17,6,0,0.00
2013-7-8,74,61,57,-100,-100,-100,0,0,100,0.00,40.00,16,6,0,0.00
2013-7-9,76,67,58,-100,-100,-100,0,0,100,0.00,40.00,15,5,0,0.00
2013-7-10,67,61,57,-100,-100,-100,0,0,100,0.00,40.00,17,8,0,0.00
2013-7-11,67,60,56,-100,-100,-100,0,0,100,0.00,40.00,12,7,0,0.00
2013-7-12,64,59,55,-100,-100,-100,0,0,100,0.00,40.00,9,3,0,0.00
2013-7-13,76,64,50,-100,-100,-100,0,0,100,0.00,40.00,12,5,0,0.00
2013-7-14,76,65,53,-100,-100,-100,0,0,100,0.00,40.00,16,6,0,0.00
2013-7-15,78,67,58,-100,-100,-100,0,0,100,0.00,40.00,15,6,0,0.00
2013-7-16,82,72,64,-100,-100,-100,0,0,100,0.00,40.00,15,5,0,0.00
2013-7-17,70,66,62,-100,-100,-100,0,0,100,0.00,40.00,22,11,0,0.00
2013-7-18,73,64,60,-100,-100,-100,0,0,100,0.00,40.00,17,6,0,0.00
2013-7-19,72,64,56,-100,-100,-100,0,0,100,0.00,40.00,15,6,0,0.00
2013-7-20,69,62,57,-100,-100,-100,0,0,100,0.00,40.00,10,4,0,0.00
2013-7-21,72,62,56,-100,-100,-100,0,0,100,0.00,40.00,18,5,0,0.00
2013-7-22,72,64,57,-100,-100,-100,0,0,100,0.00,40.00,12,6,0,0.00
2013-7-23,80,66,56,-100,-100,-100,0,0,100,0.00,40.00,15,5,0,0.00
2013-7-24,77,66,57,-100,-100,-100,0,0,100,0.00,40.00,15,6,0,0.00
2013-7-25,78,65,55,-100,-100,-100,0,0,100,0.00,40.00,18,7,0,0.00
2013-7-26,75,65,55,-100,-100,-100,0,0,100,0.00,40.00,22,8,0,0.00
2013-7-27,71,63,55,-100,-100,-100,0,0,100,0.00,40.00,15,6,0,0.00
2013-7-28,68,60,54,-100,-100,-100,0,0,100,0.00,40.00,16,9,0,0.00
2013-7-29,72,62,56,-100,-100,-100,0,0,100,0.00,40.00,13,5,0,0.00
2013-7-30,73,62,56,-100,-100,-100,0,0,100,0.00,40.00,14,5,0,0.00
2013-7-31,69,61,57,-100,-100,-100,0,0,100,0.00,40.00,7,4,0,0.00
2013-8-1,67,62,57,-100,-100,-100,0,0,100,0.00,40.00,21,11,0,0.00
2013-8-2,62,60,59,-100,-100,-100,0,0,100,0.00,40.00,15,7,0,0.00
2013-8-3,73,65,59,-100,-100,-100,0,0,100,0.00,40.00,10,4,0,0.00
2013-8-4,76,66,56,-100,-100,-100,0,0,100,0.00,40.00,13,5,0,0.00
2013-8-5,79,67,58,-100,-100,-100,0,0,100,0.00,40.00,17,6,0,0.00
2013-8-6,78,65,56,-100,-100,-100,0,0,100,0.00,40.00,15,4,0,0.00
2013-8-7,78,66,56,-100,-100,-100,0,0,100,0.00,40.00,12,3,0,0.00
2013-8-8,75,64,58,-100,-100,-100,0,0,100,0.00,40.00,16,7,0,0.00
2013-8-9,77,66,58,-100,-100,-100,0,0,100,0.00,40.00,9,4,0,0.00
2013-8-10,72,65,60,-100,-100,-100,0,0,100,0.00,40.00,14,6,0,0.00
2013-8-11,72,64,59,-100,-100,-100,0,0,100,0.00,40.00,16,7,0,0.00
2013-8-12,72,64,60,-100,-100,-100,0,0,100,0.00,40.00,9,3,0,0.00
2013-8-13,77,66,58,-100,-100,-100,0,0,100,0.00,40.00,12,5,0,0.00
2013-8-14,78,65,57,-100,-100,-100,0,0,100,0.00,40.00,18,5,0,0.00
2013-8-15,68,62,62,-100,-100,-100,0,0,100,0.00,40.00,13,3,0,0.00
2013-8-16,77,66,60,-100,-100,-100,0,0,100,0.00,40.00,8,2,0,0.00
2013-8-17,74,65,62,-100,-100,-100,0,0,100,0.00,40.00,15,6,0,0.00
2013-8-18,72,64,60,-100,-100,-100,0,0,100,0.00,40.00,14,6,0,0.00
2013-8-19,75,63,59,-100,-100,-100,0,0,100,0.00,40.00,14,5,0,0.00
2013-8-20,76,64,60,-100,-100,-100,0,0,100,0.00,40.00,16,5,0,0.00
2013-8-21,78,66,54,-100,-100,-100,0,0,100,0.00,40.00,15,6,0,0.00
2013-8-22,79,68,56,-100,-100,-100,0,0,100,0.00,40.00,7,3,0,0.00
2013-8-23,74,67,63,-100,-100,-100,0,0,100,0.00,40.00,25,12,0,0.00
2013-8-24,71,63,60,-100,-100,-100,0,0,100,0.00,40.00,13,5,0,0.00
2013-8-25,68,62,55,-100,-100,-100,0,0,100,0.00,40.00,10,3,0,0.00
2013-8-26,76,65,60,-100,-100,-100,0,0,100,0.00,40.00,20,7,0,0.00
2013-8-27,71,64,61,-100,-100,-100,0,0,100,0.00,40.00,9,4,0,0.00
2013-8-28,77,70,64,-100,-100,-100,0,0,100,0.00,40.00,13,4,0,0.00
2013-8-29,71,66,61,-100,-100,-100,0,0,100,0.00,40.00,18,6,0,0.00
2013-8-30,77,67,62,-100,-100,-100,0,0,100,0.00,40.00,20,11,0,0.00
2013-8-31,74,63,57,-100,-100,-100,0,0,100,0.00,40.00,14,4,0,0.00
2013-9-1,77,65,58,-100,-100,-100,0,0,100,0.00,40.00,9,2,0,0.00
2013-9-2,75,67,60,-100,-100,-100,0,0,100,0.00,40.00,7,3,0,0.00
2013-9-3,74,65,61,-100,-100,-100,0,0,100,0.00,40.00,8,4,0,0.00
2013-9-4,69,64,59,-100,-100,-100,0,0,100,0.00,40.00,13,3,0,0.00
2013-9-5,69,62,60,-100,-100,-100,0,0,100,0.00,40.00,15,4,0,0.00
2013-9-6,69,64,61,-100,-100,-100,0,0,100,0.00,40.00,15,5,0,0.00
2013-9-7,72,63,61,-100,-100,-100,0,0,100,0.00,40.00,10,3,0,0.00
2013-9-8,76,64,57,-100,-100,-100,0,0,100,0.00,40.00,7,3,0,0.00
2013-9-9,72,63,57,-100,-100,-100,0,0,100,0.00,40.00,15,5,0,0.00
2013-9-10,73,64,57,-100,-100,-100,0,0,100,0.00,40.00,14,6,0,0.00
2013-9-11,83,70,59,-100,-100,-100,0,0,100,0.00,40.00,12,3,0,0.00
2013-9-12,72,63,60,-100,-100,-100,0,0,100,0.00,40.00,9,2,0,0.00
2013-9-13,64,62,59,-100,-100,-100,0,0,100,0.00,40.00,15,2,0,0.00
2013-9-14,69,62,60,-100,-100,-100,0,0,100,0.00,40.00,9,3,0,0.00
2013-9-15,65,61,58,-100,-100,-100,0,0,100,0.00,40.00,15,6,0,0.00
2013-9-16,66,62,59,-100,-100,-100,0,0,100,0.00,40.00,30,11,0,0.00
2013-9-17,62,59,57,-100,-100,-100,0,0,100,0.00,40.00,5,2,0,0.00
2013-9-18,62,56,53,-100,-100,-100,0,0,100,0.00,40.00,5,2,0,0.00
2013-9-19,69,59,51,-100,-100,-100,0,0,100,0.00,40.00,8,2,0,0.00
2013-9-20,72,60,53,-100,-100,-100,0,0,100,0.00,40.00,22,6,0,0.00
2013-9-21,66,59,56,-100,-100,-100,0,0,100,0.00,40.00,16,6,0,0.00
2013-9-22,61,59,56,-100,-100,-100,0,0,100,0.00,40.00,24,16,0,0.00
2013-9-23,62,57,53,-100,-100,-100,0,0,100,0.00,40.00,23,12,0,0.00
2013-9-24,61,55,49,-100,-100,-100,0,0,100,0.00,40.00,17,7,0,0.00
2013-9-25,60,54,50,-100,-100,-100,0,0,100,0.00,40.00,14,5,0,0.00
2013-9-26,59,52,46,-100,-100,-100,0,0,100,0.00,40.00,10,4,0,0.00
2013-9-27,58,56,50,-100,-100,-100,0,0,100,0.00,40.00,22,13,0,0.00
2013-9-28,61,56,54,-100,-100,-100,0,0,100,0.00,40.00,25,16,0,0.00
2013-9-29,59,55,54,-100,-100,-100,0,0,100,0.00,40.00,31,19,0,0.00
2013-9-30,58,54,51,-100,-100,-100,0,0,100,0.00,40.00,32,17,0,0.00
2013-10-1,57,55,54,-100,-100,-100,0,0,100,0.00,40.00,31,16,0,0.00
2013-10-2,54,52,50,-100,-100,-100,0,0,100,0.00,40.00,20,8,0,0.00
2013-10-3,51,50,49,-100,-100,-100,0,0,100,0.00,40.00,6,5,0,0.00
2013-10-9,57,52,49,-100,-100,-100,0,0,100,0.00,40.00,2,1,0,0.00
2013-10-10,57,52,48,-100,-100,-100,0,0,100,0.00,40.00,7,3,0,0.00
2013-10-11,55,52,51,-100,-100,-100,0,0,100,0.00,40.00,8,3,0,0.00
2013-10-12,58,51,46,-100,-100,-100,0,0,100,0.00,40.00,9,3,0,0.00
2013-10-13,58,50,44,-100,-100,-100,0,0,100,0.00,40.00,6,2,0,0.00
2013-10-14,59,50,44,-100,-100,-100,0,0,100,0.00,40.00,12,3,0,0.00
2013-10-15,57,49,43,-100,-100,-100,0,0,100,0.00,40.00,9,4,0,0.00
2013-10-16,55,51,46,-100,-100,-100,0,0,100,0.00,40.00,8,3,0,0.00
2013-10-17,58,51,46,-100,-100,-100,0,0,100,0.00,40.00,8,3,0,0.00
2013-10-18,55,49,45,-100,-100,-100,0,0,100,0.00,40.00,9,4,0,0.00
2013-10-19,51,47,45,-100,-100,-100,0,0,100,0.00,40.00,12,4,0,0.00
2013-10-20,51,50,48,-100,-100,-100,0,0,100,0.00,40.00,8,4,0,0.00
2013-10-21,52,50,48,-100,-100,-100,0,0,100,0.00,40.00,8,5,0,0.00
2013-10-22,52,50,48,-100,-100,-100,0,0,100,0.00,40.00,9,4,0,0.00
2013-10-23,51,48,45,-100,-100,-100,0,0,100,0.00,40.00,6,2,0,0.00
2013-10-24,50,47,43,-100,-100,-100,0,0,100,0.00,40.00,7,3,0,0.00
2013-10-25,53,50,45,-100,-100,-100,0,0,100,0.00,40.00,9,3,0,0.00
2013-10-26,55,50,45,-100,-100,-100,0,0,100,0.00,40.00,10,3,0,0.00
2013-10-27,61,54,48,-100,-100,-100,0,0,100,0.00,40.00,23,10,0,0.00
2013-10-28,58,55,49,-100,-100,-100,0,0,100,0.00,40.00,27,12,0,0.00
2013-10-29,56,46,40,-100,-100,-100,0,0,100,0.00,40.00,9,4,0,0.00
2013-10-30,56,49,41,-100,-100,-100,0,0,100,0.00,40.00,15,8,0,0.00
2013-10-31,55,52,51,-100,-100,-100,0,0,100,0.00,40.00,27,8,0,0.00
2013-11-1,59,55,52,-100,-100,-100,0,0,100,0.00,40.00,12,6,0,0.00
2013-11-2,55,54,53,-100,-100,-100,0,0,100,0.00,40.00,21,14,0,0.00
2013-11-3,49,45,42,-100,-100,-100,0,0,100,0.00,40.00,9,4,0,0.00
2013-11-4,50,44,37,-100,-100,-100,0,0,100,0.00,40.00,6,4,0,0.00
2013-11-5,51,49,45,-100,-100,-100,0,0,100,0.00,40.00,12,4,0,0.00
2013-11-6,51,48,44,-100,-100,-100,0,0,100,0.00,40.00,6,2,0,0.00
2013-11-7,54,51,49,-100,-100,-100,0,0,100,0.00,40.00,31,17,0,0.00
2013-11-8,55,50,46,-100,-100,-100,0,0,100,0.00,40.00,9,5,0,0.00
2013-11-9,51,46,43,-100,-100,-100,0,0,100,0.00,40.00,9,3,0,0.00
2013-11-10,51,48,47,-100,-100,-100,0,0,100,0.00,40.00,15,7,0,0.00
2013-11-11,55,49,44,-100,-100,-100,0,0,100,0.00,40.00,7,3,0,0.00
2013-11-12,59,54,46,-100,-100,-100,0,0,100,0.00,40.00,18,11,0,0.00
2013-11-13,56,54,51,-100,-100,-100,0,0,100,0.00,40.00,28,7,0,0.00
2013-11-14,51,48,43,-100,-100,-100,0,0,100,0.00,40.00,7,2,0,0.00
2013-11-15,51,47,44,-100,-100,-100,0,0,100,0.00,40.00,24,12,0,0.00
2013-11-16,48,44,38,-100,-100,-100,0,0,100,0.00,40.00,12,4,0,0.00
2013-11-20,45,43,40,-100,-100,-100,0,0,100,0.00,40.00,12,10,0,0.00
2013-11-24,38,38,38,-100,-100,-100,0,0,100,0.00,40.00,6,4,0,0.00
2013-12-4,40,39,37,-100,-100,-100,0,0,100,0.00,40.00,7,4,0,0.00
2013-12-11,40,39,38,-100,-100,-100,0,0,100,0.00,40.00,7,2,0,0.00
2013-12-18,46,42,38,-100,-100,-100,0,0,100,0.00,40.00,14,8,0,0.00
2013-12-19,41,38,35,-100,-100,-100,0,0,100,0.00,40.00,20,5,0,0.00
2013-12-20,42,38,34,-100,-100,-100,0,0,100,0.00,40.00,44,15,0,0.00
2013-12-21,45,43,42,-100,-100,-100,0,0,100,0.00,40.00,7,2,0,0.00
2013-12-22,51,47,45,-100,-100,-100,0,0,100,0.00,40.00,23,5,0,0.00
2013-12-23,55,50,41,-100,-100,-100,0,0,100,0.00,40.00,29,15,0,0.00
2013-12-24,48,41,35,-100,-100,-100,0,0,100,0.00,40.00,6,3,0,0.00
2013-12-25,43,39,35,-100,-100,-100,0,0,100,0.00,40.00,7,3,0,0.00
2013-12-26,44,38,35,-100,-100,-100,0,0,100,0.00,40.00,7,3,0,0.00
2013-12-27,48,42,35,-100,-100,-100,0,0,100,0.00,40.00,24,6,0,0.00
2013-12-28,49,45,43,-100,-100,-100,0,0,100,0.00,40.00,7,4,0,0.00
2014-1-1,45,44,43,-100,-100,-100,0,0,100,0.00,40.00,6,2,0,0.00
2014-1-2,53,48,43,-100,-100,-100,0,0,100,0.00,40.00,30,11,0,0.00